Find Starlink 35051

NORAD ID: 65380 Int'l Des: 2025-191 Owner: SPXS Country: US Constellation: starlink operational
LEOCIRCULARRETROGRADESSO

現在のビュー

3D地球を読み込み中...

About Starlink 35051

Starlink 35051 (NORAD 65380) is a starlink constellation satellite (v2 mini) launched Aug 30, 2025 by SPXS of US. It operates in LEO, CIRCULAR, RETROGRADE, SSO orbit with a mass of 575.00 kg.

次回通過

Passes for default location (London). Set your location on the main map for personalized predictions.

高度履歴

Loading altitude history...

軌道要素

1 65380U 25191B 26238.10552227 .00088562 00000-0 59942-2 0 9995
2 65380 97.2850 104.7427 0004716 89.9811 270.1957 15.06088846 55775
Epoch: Aug 26, 2026 • Age: 6 hours

現在のステータス

高度 549.9 km
遠地点 / 近地点 N/A
速度 7.59 km/s
衛星直下点 9.43°N, 169.47°W
打ち上げ日 Aug 30, 2025
運用期間 0.9 years
タイプ internet

技術仕様

分類 Payload
質量 575.00 kg
乾燥質量 530.00 kg
総質量 575.00 kg
長さ 0.30 m
直径 4.10 m
スパン 29.00 m
形状 Box + pan
製造者 SPXS
バスタイプ Starlink V2MO
フェーズステータス In Orbit
所有者/国 SPXS/US

Most Searched